Flag for Austria Weather past 2 weeks in Krems, Lower Austria, Austria

Now
70 °F

Partly sunny.


Feels Like: 70 °F
Forecast: 60 / 67 °F
Wind: 3 mph from North

Location: Tulln Airport

Current Time: Jul 28, 2015 at 11:24:57 AM

Latest Report: Jul 28, 2015 at 10:50 AM


Visibility: 37 mi

Pressure: 29.83 "Hg

Humidity: 73%

Dew point: 61 °F

Location of KremsLocation

Historic Weather in Krems — Graph

°F

Krems temperature yesterday

Maximum temperature yesterday: 77 °F (at 4:50 PM)
Minimum temperature yesterday: 59 °F (at 10:50 PM)
Average temperature yesterday: 66 °F

Past Weeks' High & Low Weather Summary

 TemperatureHumidityPressure
High100 °F (Jul 22, 2:50 PM)100% (Jul 16, 5:50 AM)30.12 "Hg (Jul 16, 5:50 AM)
Low57 °F (Jul 16, 5:50 AM)23% (Jul 18, 3:50 PM)29.71 "Hg (Jul 25, 5:50 AM)
Average78 °F58%29.94 "Hg
* Reported Jul 13 9:50 AM — Jul 28 9:50 AM, Krems, Weather by CustomWeather, © 2015

Note: Actual official high and low records may vary slightly from our data, if they occured in-between our weather recording intervals... More about our weather records

Advertising

Krems weather history for previous 24 hours

 ConditionsComfort  
Time TempWeatherWind HumidityBarometerVisibility
9:50 AM
Tue, Jul 28
66 °FPartly sunny.2 mph88%29.83 "Hg37 mi
8:50 AM64 °FPartly sunny.2 mph78%29.83 "Hg37 mi
7:50 AM63 °FBroken clouds.1 mph83%29.83 "Hg37 mi
6:50 AM59 °FPartly sunny.3 mph88%29.83 "Hg37 mi
5:50 AM57 °FPassing clouds.7 mph94%29.83 "Hg25 mi
10:50 PM
Mon, Jul 27
59 °FPassing clouds.3 mph94%29.83 "Hg25 mi
9:50 PM61 °FPassing clouds.3 mph94%29.80 "Hg28 mi
8:50 PM63 °FScattered clouds.6 mph88%29.77 "Hg37 mi
7:50 PM66 °FScattered clouds.3 mph88%29.74 "Hg37 mi
6:50 PM66 °FThunderstorms. Scattered clouds.6 mph78%29.74 "Hg37 mi
5:50 PM75 °FPassing clouds.12 mph54%29.71 "Hg37 mi
4:50 PM77 °FPassing clouds.17 mph51%29.71 "Hg37 mi
3:50 PM75 °FPassing clouds.12 mph61%29.71 "Hg37 mi
2:50 PM68 °FBroken clouds.12 mph83%29.74 "Hg37 mi
1:50 PM64 °FBroken clouds.8 mph88%29.77 "Hg16 mi
12:50 PM63 °FSprinkles. Broken clouds.7 mph88%29.80 "Hg12 mi
11:50 AM61 °FBroken clouds.6 mph94%29.77 "Hg12 mi
Weather by CustomWeather, © 2015

See weather overviewHow to use our weather pages